Daily Data: Northwest Mesa

   
7/23/17
Time         Wind Dir   Wind Spd  Wind Gust   Humidity       Temp  Dew Point   Barom SL  DailyRain   HourRain   RainRate
                            mph        mph          %         F         F         in         in         in      in/hr
12:00am           113          3          7         49       86.7       65.3      29.61       0.05       0.00      0.000
12:05am           145          3          6         50       86.7       65.9      29.61       0.00       0.00      0.000
12:10am           102          3          8         50       86.7       65.9      29.61       0.00       0.00      0.000
12:15am           133          3          7         50       86.7       65.9      29.61       0.00       0.00      0.000
12:20am           162          8         11         49       86.7       65.3      29.61       0.00       0.00      0.000
12:25am           136          4         11         49       86.7       65.3      29.61       0.00       0.00      0.000
12:30am           147          6          7         49       86.7       65.3      29.61       0.00       0.00      0.000
12:35am           137          1          8         49       86.7       65.3      29.61       0.00       0.00      0.000
12:40am           137          4          8         49       86.5       65.1      29.61       0.00       0.00      0.000
12:45am           143          4          8         49       86.7       65.3      29.61       0.00       0.00      0.000
12:50am           120          3         11         49       86.5       65.1      29.61       0.00       0.00      0.000
12:55am           138          2          8         49       86.5       65.1      29.61       0.00       0.00      0.000
1:00am            107          5         10         49       86.5       65.1      29.61       0.00       0.00      0.000
1:05am             85          3          8         48       86.3       64.3      29.61       0.00       0.00      0.000
1:10am            131          2          8         48       86.3       64.3      29.61       0.00       0.00      0.000
1:15am            151          2          8         48       86.3       64.3      29.60       0.00       0.00      0.000
1:20am            134          3          7         48       86.1       64.1      29.60       0.00       0.00      0.000
1:25am             99          5          6         49       86.1       64.7      29.60       0.00       0.00      0.000
1:30am            140          2          8         49       86.1       64.7      29.60       0.00       0.00      0.000
1:35am            147          2          8         48       85.9       64.0      29.60       0.00       0.00      0.000
1:40am            148          0          7         49       85.9       64.5      29.60       0.00       0.00      0.000
1:45am            148          2          3         49       85.9       64.5      29.60       0.00       0.00      0.000
1:50am            148          3          3         49       85.7       64.4      29.60       0.00       0.00      0.000
1:55am            126          2          5         49       85.7       64.4      29.60       0.00       0.00      0.000
2:00am            134          0          3         49       85.7       64.4      29.60       0.00       0.00      0.000
2:05am            145          0          5         49       85.7       64.4      29.60       0.00       0.00      0.000
2:10am            128          1          5         50       85.7       64.9      29.60       0.00       0.00      0.000
2:15am            133          1          5         50       85.5       64.8      29.60       0.00       0.00      0.000
2:20am            147          5          7         50       85.5       64.8      29.60       0.00       0.00      0.000
2:25am            161          0         10         50       85.5       64.8      29.60       0.00       0.00      0.000
2:30am            128          0          7         51       85.5       65.3      29.59       0.00       0.00      0.000
2:35am            120          2          6         51       85.5       65.3      29.59       0.00       0.00      0.000
2:40am            147          2          7         51       85.5       65.3      29.59       0.00       0.00      0.000
2:45am            141          3          7         51       85.5       65.3      29.59       0.00       0.00      0.000
2:50am            147          5          6         51       85.5       65.3      29.59       0.00       0.00      0.000
2:55am            140          3          5         51       85.3       65.1      29.59       0.00       0.00      0.000
3:00am            141          1          6         52       85.3       65.7      29.60       0.00       0.00      0.000
3:05am            141          0          3         52       85.3       65.7      29.60       0.00       0.00      0.000
3:10am            143          0          6         52       85.3       65.7      29.60       0.00       0.00      0.000
3:15am            143          2          5         53       85.1       66.1      29.60       0.00       0.00      0.000
3:20am            143          1          5         53       85.3       66.2      29.60       0.00       0.00      0.000
3:25am            143          0          2         53       85.1       66.1      29.60       0.00       0.00      0.000
3:30am            143          0          2         53       85.1       66.1      29.60       0.00       0.00      0.000
3:35am            143          2          3         53       84.9       65.9      29.60       0.00       0.00      0.000
3:40am            143          0          2         53       84.9       65.9      29.60       0.00       0.00      0.000
3:45am            148          1          7         53       84.9       65.9      29.60       0.00       0.00      0.000
3:50am            148          0          6         53       84.9       65.9      29.60       0.00       0.00      0.000
3:55am            148          1          3         53       84.9       65.9      29.60       0.00       0.00      0.000
4:00am            147          2          6         53       84.9       65.9      29.60       0.00       0.00      0.000
4:05am             93          5          5         53       84.9       65.9      29.60       0.00       0.00      0.000
4:10am            134          3          6         53       84.7       65.7      29.60       0.00       0.00      0.000
4:15am            128          1          5         54       84.7       66.2      29.61       0.00       0.00      0.000
4:20am            151          1          5         54       84.5       66.0      29.61       0.00       0.00      0.000
4:25am            138          3          3         54       84.3       65.9      29.61       0.00       0.00      0.000
4:30am            161          2          7         54       84.3       65.9      29.61       0.00       0.00      0.000
4:35am            160          5          6         54       84.3       65.9      29.61       0.00       0.00      0.000
4:40am            138          1          6         54       84.3       65.9      29.61       0.00       0.00      0.000
4:45am            150          4          6         54       84.1       65.7      29.61       0.00       0.00      0.000
4:50am            147          3          7         54       84.1       65.7      29.61       0.00       0.00      0.000
4:55am            162          7          7         55       84.1       66.2      29.61       0.00       0.00      0.000
5:00am            120          3          7         55       84.1       66.2      29.61       0.00       0.00      0.000
5:05am            126          3          5         55       84.0       66.1      29.61       0.00       0.00      0.000
5:10am            136          2          5         55       84.0       66.1      29.61       0.00       0.00      0.000
5:15am            136          0          5         55       84.0       66.1      29.63       0.00       0.00      0.000
5:20am            145          1          5         55       84.0       66.1      29.63       0.00       0.00      0.000
5:25am            147          3          3         56       83.8       66.4      29.63       0.00       0.00      0.000
5:30am            145          0          3         56       83.8       66.4      29.63       0.00       0.00      0.000
5:35am            131          1          6         56       83.8       66.4      29.63       0.00       0.00      0.000
5:40am            131          5          5         56       83.8       66.4      29.63       0.00       0.00      0.000
5:45am            137          2          6         56       83.8       66.4      29.63       0.00       0.00      0.000
5:50am            137          2          4         56       83.6       66.3      29.63       0.00       0.00      0.000
5:55am             89          0          2         56       83.6       66.3      29.63       0.00       0.00      0.000
6:00am             89          0          2         56       83.6       66.3      29.64       0.00       0.00      0.000
6:05am             90          2          3         56       83.8       66.4      29.64       0.00       0.00      0.000
6:10am             92          0          2         56       84.0       66.6      29.64       0.00       0.00      0.000
6:15am             88          2          5         56       84.1       66.7      29.64       0.00       0.00      0.000
6:20am             88          1          3         56       84.3       66.9      29.64       0.00       0.00      0.000
6:25am            117          0          5         56       84.5       67.1      29.64       0.00       0.00      0.000
6:30am            119          1          2         55       84.7       66.8      29.64       0.00       0.00      0.000
6:35am             86          1          6         54       84.9       66.4      29.64       0.00       0.00      0.000
6:40am            102          2          6         53       85.1       66.1      29.64       0.00       0.00      0.000
6:45am            136          2          3         53       85.3       66.2      29.66       0.00       0.00      0.000
6:50am            104          0          5         53       85.5       66.4      29.66       0.00       0.00      0.000
6:55am             85          3          6         52       85.5       65.9      29.66       0.00       0.00      0.000
7:00am             97          0          6         52       85.7       66.1      29.66       0.00       0.00      0.000
7:05am             96          2          4         52       86.1       66.4      29.66       0.00       0.00      0.000
7:10am            102          1          6         51       85.9       65.7      29.66       0.00       0.00      0.000
7:15am            124          3          4         52       85.9       66.3      29.66       0.00       0.00      0.000
7:20am            128          1          5         52       85.9       66.3      29.66       0.00       0.00      0.000
7:25am            120          1          7         51       85.9       65.7      29.66       0.00       0.00      0.000
7:30am            121          0          5         52       85.9       66.3      29.66       0.00       0.00      0.000
7:35am             85          2          5         52       86.3       66.6      29.66       0.00       0.00      0.000
7:40am            152          0          7         51       86.3       66.1      29.66       0.00       0.00      0.000
7:45am            130          2          5         51       86.3       66.1      29.66       0.00       0.00      0.000
7:50am            141          1          7         51       86.3       66.1      29.66       0.00       0.00      0.000
7:55am            141          3          5         51       87.0       66.7      29.66       0.00       0.00      0.000
8:00am            141          6          7         49       87.6       66.1      29.66       0.00       0.00      0.000
8:05am            130          8          8         49       88.2       66.6      29.66       0.00       0.00      0.000
8:10am            123          4          8         48       88.6       66.4      29.66       0.00       0.00      0.000
8:15am            143          1          6         47       88.8       66.0      29.67       0.00       0.00      0.000
8:20am            134          3          6         46       89.0       65.6      29.67       0.00       0.00      0.000
8:25am            119          2          5         47       89.7       66.8      29.67       0.00       0.00      0.000
8:30am            227          3          6         45       89.9       65.7      29.67       0.00       0.00      0.000
8:35am            181          0          5         45       89.9       65.7      29.67       0.00       0.00      0.000
8:40am            181          7          7         45       90.3       66.1      29.67       0.00       0.00      0.000
8:45am            151          0          7         45       90.5       66.3      29.67       0.00       0.00      0.000
8:50am            256          4          6         43       91.0       65.4      29.67       0.00       0.00      0.000
8:55am            256          1          4         43       91.2       65.6      29.67       0.00       0.00      0.000
9:00am            195          2          5         42       91.6       65.3      29.67       0.00       0.00      0.000
9:05am            248          7          7         41       91.8       64.8      29.67       0.00       0.00      0.000
9:10am            268          2          7         41       91.4       64.4      29.67       0.00       0.00      0.000
9:15am            357          0          5         42       91.4       65.1      29.66       0.00       0.00      0.000
9:20am            168          4          6         42       91.8       65.5      29.66       0.00       0.00      0.000
9:25am            130          0          7         42       91.8       65.5      29.66       0.00       0.00      0.000
9:30am            100          3          3         41       92.5       65.4      29.67       0.00       0.00      0.000
9:35am            103          1          3         40       92.5       64.7      29.67       0.00       0.00      0.000
9:40am             93          2          5         40       92.7       64.9      29.67       0.00       0.00      0.000
9:45am             95          1          3         39       92.9       64.3      29.67       0.00       0.00      0.000
9:50am            229          2          6         38       93.2       63.8      29.67       0.00       0.00      0.000
9:55am            229          3          3         36       93.4       62.5      29.67       0.00       0.00      0.000
10:00am           229          2          4         35       92.9       61.2      29.66       0.00       0.00      0.000
10:05am           229          0          3         35       92.7       61.1      29.66       0.00       0.00      0.000
10:10am           227          1          4         36       92.5       61.7      29.66       0.00       0.00      0.000
10:15am           227          2          3         38       92.1       62.9      29.66       0.00       0.00      0.000
10:20am           282          5          5         39       92.3       63.8      29.66       0.00       0.00      0.000
10:25am           284          0          6         40       92.1       64.3      29.66       0.00       0.00      0.000
10:30am           278          1          3         38       92.5       63.2      29.66       0.00       0.00      0.000
10:35am           234          3          6         38       92.9       63.6      29.66       0.00       0.00      0.000
10:40am           202          3          5         36       93.6       62.7      29.66       0.00       0.00      0.000
10:45am           254          2          7         35       93.6       61.9      29.65       0.00       0.00      0.000
10:50am           260          5          5         35       94.0       62.2      29.65       0.00       0.00      0.000
10:55am           165          5          8         35       94.7       62.8      29.65       0.00       0.00      0.000
11:00am           171          1          5         36       94.9       63.8      29.66       0.00       0.00      0.000
11:05am            86          0          6         35       94.9       63.0      29.66       0.00       0.00      0.000
11:10am           154          3          7         36       94.5       63.4      29.66       0.00       0.00      0.000
11:15am           174          2          6         36       93.8       62.8      29.65       0.00       0.00      0.000
11:20am           185          5          6         37       93.6       63.4      29.65       0.00       0.00      0.000
11:25am           164          3          6         37       93.2       63.1      29.65       0.00       0.00      0.000
11:30am           186          3          7         37       92.7       62.6      29.66       0.00       0.00      0.000
11:35am           186          0          5         38       92.7       63.4      29.66       0.00       0.00      0.000
11:40am           124          6          6         37       92.9       62.8      29.66       0.00       0.00      0.000
11:45am            59          2          6         40       92.9       65.0      29.65       0.00       0.00      0.000
11:50am           359          2          5         39       93.4       64.8      29.65       0.00       0.00      0.000
11:55am            37          3          6         38       94.5       65.0      29.65       0.00       0.00      0.000
12:00pm            32          2          6         36       95.1       64.0      29.64       0.00       0.00      0.000
12:05pm            34          0          2         33       95.9       62.2      29.64       0.00       0.00      0.000
12:10pm            83          3          5         32       97.1       62.4      29.64       0.00       0.00      0.000
12:15pm           143          6         10         29       96.3       58.9      29.63       0.00       0.00      0.000
12:20pm           171          7         12         31       95.6       60.2      29.63       0.00       0.00      0.000
12:25pm           234         11         15         32       96.1       61.5      29.63       0.00       0.00      0.000
12:30pm           253          0         11         31       96.1       60.6      29.63       0.00       0.00      0.000
12:35pm            86          0          3         31       96.8       61.2      29.63       0.00       0.00      0.000
12:40pm           261          3          6         30       97.5       60.9      29.63       0.00       0.00      0.000
12:45pm           215          3          6         30       97.5       60.9      29.62       0.00       0.00      0.000
12:50pm           147          2          6         31       97.1       61.5      29.62       0.00       0.00      0.000
12:55pm            93          2          3         30       97.3       60.7      29.62       0.00       0.00      0.000
1:00pm            295          3          3         29       98.0       60.4      29.60       0.00       0.00      0.000
1:05pm            302          5          7         28       98.0       59.4      29.60       0.00       0.00      0.000
1:10pm            298          3          6         28       97.8       59.2      29.60       0.00       0.00      0.000
1:15pm             92          3          3         28       98.2       59.5      29.60       0.00       0.00      0.000
1:20pm             79          3          3         27       99.0       59.2      29.60       0.00       0.00      0.000
1:25pm            174          3          6         27       99.4       59.5      29.60       0.00       0.00      0.000
1:30pm            179          0          5         27       98.7       58.9      29.59       0.00       0.00      0.000
1:35pm            206          0          6         28       99.0       60.2      29.59       0.00       0.00      0.000
1:40pm            155          2          6         27       99.0       59.2      29.59       0.00       0.00      0.000
1:45pm            160          2          3         29       98.7       61.0      29.58       0.00       0.00      0.000
1:50pm            120          3          9         30       98.0       61.3      29.58       0.00       0.00      0.000
1:55pm            323          2         10         28       98.5       59.8      29.58       0.00       0.00      0.000
2:00pm            223          1          5         28       99.2       60.4      29.58       0.00       0.00      0.000
2:05pm            272          2          6         27       99.7       59.8      29.58       0.00       0.00      0.000
2:10pm            330          0          6         27       99.2       59.4      29.58       0.00       0.00      0.000
2:15pm            248          4          6         27       99.2       59.4      29.57       0.00       0.00      0.000
2:20pm            167          3          6         27       99.0       59.2      29.57       0.00       0.00      0.000
2:25pm            354          3          8         28       99.2       60.4      29.57       0.00       0.00      0.000
2:30pm              0          2          8         27       99.2       59.4      29.56       0.00       0.00      0.000
2:35pm             34          7         11         28       99.7       60.8      29.56       0.00       0.00      0.000
2:40pm            342          3          7         27      100.2       60.2      29.56       0.00       0.00      0.000
2:45pm            357          5         10         27       99.9       60.0      29.55       0.00       0.00      0.000
2:50pm            353          7          7         28       99.9       61.0      29.55       0.00       0.00      0.000
2:55pm            299          2         10         28       99.7       60.8      29.55       0.00       0.00      0.000
3:00pm            309          3         13         28       99.2       60.4      29.54       0.00       0.00      0.000
3:05pm            333          7         14         27       99.4       59.5      29.54       0.00       0.00      0.000
3:10pm            274          5         11         27       99.4       59.5      29.54       0.00       0.00      0.000
3:15pm            291          2          6         27       99.9       60.0      29.54       0.00       0.00      0.000
3:20pm            326          2         10         26       99.9       58.9      29.54       0.00       0.00      0.000
3:25pm            326          0          3         26      100.4       59.3      29.54       0.00       0.00      0.000
3:30pm            328          5          5         25      101.5       59.2      29.53       0.00       0.00      0.000
3:35pm            301          3          7         24      101.5       58.0      29.53       0.00       0.00      0.000
3:40pm            213          2          8         25      101.0       58.7      29.53       0.00       0.00      0.000
3:45pm            179          6          8         24      101.5       58.0      29.52       0.00       0.00      0.000
3:50pm            196          0          8         24      101.2       57.8      29.52       0.00       0.00      0.000
3:55pm            164          5          5         24      101.7       58.2      29.52       0.00       0.00      0.000
4:00pm            254          3          6         24      101.5       58.0      29.51       0.00       0.00      0.000
4:05pm            257          3          7         24      101.2       57.8      29.51       0.00       0.00      0.000
4:10pm            319          1         11         25      100.7       58.5      29.51       0.00       0.00      0.000
4:15pm            339          0         10         25      100.4       58.2      29.52       0.00       0.00      0.000
4:20pm            261          4          8         24      101.0       57.6      29.52       0.00       0.00      0.000
4:25pm            203          4          9         24      101.2       57.8      29.52       0.00       0.00      0.000
4:30pm            206          1          6         24      101.2       57.8      29.52       0.00       0.00      0.000
4:35pm            296          5         11         24      101.5       58.0      29.52       0.00       0.00      0.000
4:40pm            308          0          7         24      101.0       57.6      29.52       0.00       0.00      0.000
4:45pm            325          6         12         24      101.2       57.8      29.51       0.00       0.00      0.000
4:50pm            258          9         11         24      101.5       58.0      29.51       0.00       0.00      0.000
4:55pm            234          6         12         24      101.2       57.8      29.51       0.00       0.00      0.000
5:00pm            237          1          7         24      101.0       57.6      29.51       0.00       0.00      0.000
5:05pm            336          8         12         24      101.0       57.6      29.51       0.00       0.00      0.000
5:10pm            342          3         11         24      100.4       57.1      29.51       0.00       0.00      0.000
5:15pm            349         10         11         24      100.7       57.3      29.52       0.00       0.00      0.000
5:20pm            256          5         10         24      101.0       57.6      29.52       0.00       0.00      0.000
5:25pm            247          5         12         23      101.5       56.8      29.52       0.00       0.00      0.000
5:30pm            354          2          9         24      101.5       58.0      29.52       0.00       0.00      0.000
5:35pm            356          3         10         24      101.2       57.8      29.52       0.00       0.00      0.000
5:40pm            294          7         17         24      100.7       57.3      29.52       0.00       0.00      0.000
5:45pm            268          6         10         24      100.7       57.3      29.52       0.00       0.00      0.000
5:50pm            347          7          9         24      100.7       57.3      29.52       0.00       0.00      0.000
5:55pm            322          6         12         24      100.4       57.1      29.52       0.00       0.00      0.000
6:00pm            296          3         13         24      100.4       57.1      29.51       0.00       0.00      0.000
6:05pm            315          7         14         24      100.4       57.1      29.51       0.00       0.00      0.000
6:10pm              0          7          9         24      100.4       57.1      29.51       0.00       0.00      0.000
6:15pm            336          3         10         24      100.7       57.3      29.52       0.00       0.00      0.000
6:20pm            333          3         13         24      100.4       57.1      29.52       0.00       0.00      0.000
6:25pm            320          2          6         24      100.4       57.1      29.52       0.00       0.00      0.000
6:30pm            347          5         11         24      100.2       56.9      29.53       0.00       0.00      0.000
6:35pm            344          4          7         24       99.9       56.7      29.53       0.00       0.00      0.000
6:40pm             27         16         22         26       99.4       58.5      29.53       0.00       0.00      0.000
6:45pm             97         13         24         37       94.9       64.6      29.58       0.00       0.00      0.000
6:50pm            107         11         19         42       91.0       64.7      29.58       0.00       0.00      0.000
6:55pm            128         10         25         48       88.2       66.1      29.58       0.00       0.00      0.000
7:00pm             97         10         27         53       85.5       66.4      29.63       0.00       0.00      0.000
7:05pm             95         12         18         56       83.6       66.3      29.63       0.00       0.00      0.000
7:10pm            107          7         21         60       82.0       66.8      29.63       0.00       0.00      0.000
7:15pm            102         12         18         63       80.5       66.8      29.65       0.00       0.00      0.000
7:20pm             79         12         15         66       79.2       66.9      29.65       0.01       0.01      0.000
7:25pm             78         12         16         72       77.4       67.7      29.65       0.07       0.07      0.630
7:30pm            103         11         13         75       76.3       67.8      29.66       0.17       0.17      1.240
7:35pm             88          4         16         77       75.6       67.9      29.66       0.26       0.26      1.010
7:40pm            113          5         11         78       75.1       67.8      29.66       0.33       0.33      0.850
7:45pm            130          6         10         79       74.6       67.7      29.66       0.39       0.39      0.450
7:50pm             90          6         11         80       74.4       67.8      29.66       0.40       0.40      0.170
7:55pm            141          6          7         80       74.6       68.0      29.66       0.41       0.41      0.100
8:00pm            143          3         13         80       74.7       68.1      29.68       0.41       0.41      0.080
8:05pm            136          5          9         81       75.1       68.9      29.68       0.41       0.41      0.050
8:10pm            137          7         12         81       75.8       69.6      29.68       0.42       0.42      0.050
8:15pm            167          6         12         81       75.6       69.4      29.66       0.42       0.42      0.050
8:20pm            143          5         12         81       75.6       69.4      29.66       0.43       0.43      0.060
8:25pm            124          7         11         81       75.6       69.4      29.66       0.43       0.42      0.060
8:30pm            140         11         13         82       75.8       69.9      29.65       0.43       0.36      0.040
8:35pm            145          5         12         82       76.0       70.1      29.65       0.43       0.26      0.000
8:40pm            128          5         10         82       76.0       70.1      29.65       0.43       0.17      0.000
8:45pm            116          3         10         82       76.0       70.1      29.66       0.44       0.11      0.000
8:50pm            103          1          5         83       76.3       70.8      29.66       0.44       0.05      0.000
8:55pm             90          2          5         83       76.5       71.0      29.66       0.44       0.04      0.000
9:00pm             34          2          6         83       76.7       71.2      29.68       0.45       0.04      0.050
9:05pm             59          2          8         83       76.0       70.5      29.68       0.45       0.04      0.050
9:10pm             62          3          4         83       75.6       70.1      29.68       0.45       0.04      0.050
9:15pm             31          0          6         83       75.6       70.1      29.68       0.46       0.04      0.050
9:20pm             37          5          5         83       75.8       70.3      29.68       0.46       0.04      0.050
9:25pm             21          7          7         83       75.8       70.3      29.68       0.47       0.04      0.050
9:30pm              0          0          7         83       75.8       70.3      29.69       0.47       0.04      0.050
9:35pm              0          0          6         83       75.8       70.3      29.69       0.48       0.05      0.060
9:40pm              1          0          2         83       75.6       70.1      29.69       0.49       0.06      0.100
9:45pm             45          1          3         84       75.8       70.6      29.69       0.50       0.07      0.120
9:50pm             42          0          6         84       75.8       70.6      29.69       0.51       0.07      0.190
9:55pm             62          3          7         83       75.3       69.8      29.69       0.52       0.08      0.090
10:00pm            62          0          3         84       75.1       69.9      29.69       0.52       0.08      0.090
10:05pm            42          0          6         84       75.1       69.9      29.69       0.53       0.08      0.080
10:10pm            85          1          5         84       74.9       69.7      29.69       0.53       0.08      0.070
10:15pm            58          2          5         84       74.9       69.7      29.68       0.53       0.08      0.050
10:20pm            62          2          6         84       74.9       69.7      29.68       0.53       0.07      0.000
10:25pm            59          1          3         84       74.9       69.7      29.68       0.53       0.07      0.000
10:30pm            61          0          2         84       74.9       69.7      29.68       0.54       0.07      0.000
10:35pm            61          0          1         84       75.1       69.9      29.68       0.54       0.07      0.000
10:40pm            61          0          2         84       75.1       69.9      29.68       0.54       0.06      0.000
10:45pm            61          0          0         84       75.1       69.9      29.68       0.54       0.05      0.000
10:50pm            61          0          0         84       75.1       69.9      29.68       0.54       0.04      0.000
10:55pm            61          2          2         84       75.1       69.9      29.68       0.55       0.04      0.000
11:00pm            32          1          3         84       74.9       69.7      29.68       0.55       0.03      0.000
11:05pm            31          0          2         84       74.9       69.7      29.68       0.55       0.03      0.000